THORAD DELTA 1 DEB, 9989

Orbit data source: Space-Track

THORAD DELTA 1 DEB, 9989 is space debris in LEO originally from a launch on Fri, 15 Nov 1974 UTC launched from the Air Force Western Test Range (AFWTR). Debris objects in space refer to the collection of defunct objects orbiting the Earth. Examples of debris include non-operational satellites, rocket bodies, and fragments generated from explosions, collisions, or faulty payload assembly.

Loading next visibility...
Identifier
9989, 1974-089EG
Orbit
LEO
Country
Flag of USUS
Related business
Manufacturer
Unknown
Mission
Spacecraft
Bus & Motor
Unknown
Mass
Unknown
Launch date (UTC)
1974-11-15 (51 years ago)
Launch vehicle
Unknown
Launch site
Air Force Western Test Range (AFWTR)
Object type
Payload
Rocket body
Debris
Shape & HBR
Unknown shape, 0.1 m
Radar Cross Section
Small (<0.1 m²)

Expand to show TLE details & history
Last TLE update: 6 hours ago

TLE from 6 hours ago
0 THORAD DELTA 1 DEB
1 09989U 74089EG  25349.94267660  .00001125  00000-0  73520-2 0  9994
2 09989 103.0411 246.2186 0194377 331.6667  92.9002 12.48709531278626
Epoch: 2025-12-15T22:37Z
TLE epoch observation values (Epoch: 2025-12-15T22:37:27.258Z)
Latitude
63.64117°
Longitude
154.30055°
Altitude
1,491.292 km
Speed
7.119 km/s
True Right ascension
14h 33m 59s
True Declination
63° 31' 01"
Sunlit
Object was in daylight at epoch
Visualization orbit readout
Latitude
Unknown
Longitude
Unknown
Altitude
Unknown
Speed
Unknown
Apparent Right ascension
Unknown
Apparent Declination
Unknown
Sunlit
N/A
Visualization observer readout
Local Sidereal Time
02:53:18
Azimuth
Unknown
Elevation
Unknown
Doppler factor
Unknown
Orbital elements
Apogee altitude
1,620.026 km
Perigee altitude
1,315.022 km
Semi-major axis
7,845.661 km
Eccentricity
0.01944
Inclination
103.0411°
RAAN
246.2186°
Arg. of periapsis
331.6667°
True anomaly
95.12146°
Mean anomaly
92.9002°
Eccentric anomaly
94.01117°
Mean motion
3.12319 °/min
Orbital period
115.27 mins
BSTAR
0.007352
Loading maneuver chart data...
Computing Atmospheric mass density...

Documentation

Showing up to 5 results
|